Notices

What's New in latest Release from April 7th, 2021:

- Updated Glossary, including Speed of Maximum Gust, and Total Hourly Precipitation

- Updated national and regional climate services offices contacts and prices information

- Addition of station inventory lists for 1981-2010, 1971-2000, and 1961-1990 Normals.

If you haven't already, please take our survey and provide feedback about our website: https://eccc.sondage-survey.ca/f/LanguageSelection.aspx?s=442ca660-fcf1-47c0-95a9-59707d6fd709

Hourly Data Report for November 26, 2020

SHEARWATER RCS
NOVA SCOTIA
Current Station Operator: ECCC - MSC

44°37'47.000" N
63°30'48.000" W
24.00 m
8205092
71264
AAW

Download Data

Hourly Data (November 2020)
Hourly Data Report for November 26, 2020
TIME
LST
Temp Definition
°C
Dew Point Definition
°C
Rel Hum Definition
%
Precip. Amount Definition
mm

Wind Dir Definition
10's deg

Wind Spd Definition
km/h
Visibility Definition
km
Stn Press Definition
kPa
Hmdx Definition


Wind Chill Definition


Weather Definition


00:00 6.3 2.3 75 0.0 19 17   102.43     LegendNANA
01:00 6.6 3.0 77 0.0 19 11   102.38     LegendNANA
02:00 7.0 4.8 86 0.0 19 9   102.34     LegendNANA
03:00 6.9 5.8 93 0.0 19 8   102.29     LegendNANA
04:00 7.4 6.7 95 0.4 17 10   102.17     LegendNANA
05:00 8.0 7.4 96 0.3 18 12   102.10     LegendNANA
06:00 9.1 8.5 96 0.6 21 15   102.10     LegendNANA
07:00 9.8 8.9 94 0.0 23 12   102.13     LegendNANA
08:00 9.7 9.0 96 0.0 25 8   102.15     LegendNANA
09:00 9.9 9.4 97 0.0 22 8   102.16     LegendNANA
10:00 9.9 9.2 95 0.0 25 5   102.19     LegendNANA
11:00 9.1 8.4 96 0.0 33 6   102.19     LegendNANA
12:00 8.9 8.0 94 0.0 28 5   102.15     LegendNANA
13:00 9.6 8.4 92 0.0 32 5   102.14     LegendNANA
14:00 9.5 8.3 92 0.0 28 3   102.14     LegendNANA
15:00 9.5 8.1 91 0.0 24 2   102.15     LegendNANA
16:00 9.5 8.3 92 0.0 10 5   102.08     LegendNANA
17:00
18:00 8.7 8.2 97 0.0 10 8   102.07     LegendNANA
19:00 9.0 8.5 97 0.0 10 8   102.04     LegendNANA
20:00 9.4 8.9 96 0.0 11 10   102.02     LegendNANA
21:00 10.0 9.5 97 0.2 15 9   101.98     LegendNANA
22:00 10.0 9.7 98 0.3 14 13   101.91     LegendNANA
23:00 10.5 10.2 98 0.9 16 12   101.88     LegendNANA

Notes on Data Quality.

Legend

  • E = Estimated
  • M = Missing
  • NA = Not Available*
  • [empty] = Indicates an unobserved value
Date modified: